{"data":{"norad_id":63140,"intl_designator":"2025-043J","name":"STARLINK-11607 [DTC]","alt_names":[],"object_type":"PAYLOAD","status":"ACTIVE","operator":null,"country":"US","launch_date":"2025-03-03","launch_site_code":"AFETR","launch_vehicle":null,"mission":null,"orbit_class":"UNKNOWN","rcs_meters":null,"size_class":null,"mass_kg":null,"dimensions":null,"purposes":["comms"],"wikipedia_slug":null,"has_3d_model":false,"image_url":null,"decayed_at":null,"tle_current":{"epoch":"2026-05-24T17:25:26.114016Z","epoch_age_seconds":92615,"freshness":"FRESH","line1":"1 63140U 25043J   26144.72599669  .00191227  00000+0  14575-2 0  9993","line2":"2 63140  43.0006 152.1272 0000772  32.5808 327.5107 15.70876554 71439","mean_motion":15.70876554,"eccentricity":7.72e-5,"inclination_deg":43.0006,"raan_deg":152.1272,"arg_perigee_deg":32.5808,"mean_anomaly_deg":327.5107,"bstar":0.0014575,"rev_number":7143,"period_min":91.668565319996,"perigee_km":355.87067989177,"apogee_km":356.91049095096,"semimajor_km":6734.5275854214,"source":"CELESTRAK","updated_at":"2026-05-25T13:38:19.915413Z"}}}